Regional Weather Roundup
Issued by NWS

Current Version | Previous Version | Text Only | Print | Product List | Glossary On
Versions: 1 2 3 4 5 6 7 8 9 10 11 12 13 14 15 16 17 18 19 20 21 22 23 24 25 26 27 28 29 30 31 32 33 34 35 36 37 38 39 40 41 42 43 44 45 46 47 48 49 50
000
ASCA44 KEWX 221620
RWRMX

LATIN AMERICA AND CARIBBEAN REGIONAL WEATHER ROUNDUP
NATIONAL WEATHER SERVICE AUSTIN/SAN ANTONIO TX
1100 AM CDT SAT JUL 22 2017

NOTE: "FAIR" INDICATED FEW OR NO CLOUDS BELOW 12,000 FEET WITH NO
SIGNIFICANT WEATHER AND/OR OBSTRUCTIONS TO VISIBILITY.

BAJA CALIFORNIA

CITY           SKY/WX    TMP DP  RH WIND       PRES   REMARKS
LORETO         MOSUNNY   91  75  59 CALM      29.85R HX 102
LA PAZ         MOSUNNY   91  50  24 S3        29.90S
MEXICALI       SUNNY     90  70  51 SE15      29.83R HX  95
S.J. DEL CABO  SUNNY     88  66  48 SE6       29.93R HX  90
TIJUANA        PTSUNNY   70  64  83 CALM      29.95S

NORTHWESTERN MEXICO

CITY           SKY/WX    TMP DP  RH WIND       PRES   REMARKS
CULIACAN       CLOUDY    79  70  73 N5        29.93F
DURANGO        MOSUNNY   66  57  72 CALM      30.30F
GUAYMAS        CLOUDY    88  79  74 E7        29.86R HX 102
HERMOSILLO     CLOUDY    82  73  74 E18       29.96R
CD. JUAREZ     PTSUNNY   77  64  65 SW5       30.12F
LOS MOCHIS     MOSUNNY   88  72  58 SE18      29.92S HX  94
OBREGON        CLOUDY    86  73  66 E9        29.89R HX  93

NORTHEASTERN MEXICO

CITY           SKY/WX    TMP DP  RH WIND       PRES   REMARKS
CHIHUAHUA      PTSUNNY   72  64  78 CALM      30.18S
MATAMOROS      PTSUNNY   91  73  55 S15       29.98R HX 100
MONCLOVA         N/A    N/A N/A N/A MISG        N/A
MONTERREY      MOSUNNY   86  66  51 NE5       29.97S
NUEVO LAREDO   SUNNY     88  73  62 SE9       29.95F HX  96
PIEDRAS NEGRAS MOSUNNY   88  73  62 SE6       29.99S HX  96
REYNOSA        MOSUNNY   88  66  48 E12G23    29.95F HX  90
SALTILLO       SUNNY     84  64  51 SW7       30.23S
TORREON        MOSUNNY   82  61  47 E8        30.14R
CD. VICTORIA   SUNNY     84  68  58 S21       29.99R

WESTERN MEXICO

CITY           SKY/WX    TMP DP  RH WIND       PRES   REMARKS
AGUASCALIENTES PTSUNNY   68  54  60 N8        30.32S
COLIMA         MOSUNNY   81  70  69 CALM      30.04F
DEL BAJIO      MOSUNNY   73  57  56 CALM      30.34S
GUADALAJARA    CLOUDY    68  59  73 NE5       30.25R
MANZANILLO     MOSUNNY   84  73  70 CALM      29.87S HX  91
MAZATLAN       CLOUDY    79  73  83 CALM      29.90S
P. VALLARTA    PTSUNNY   81  75  83 CALM      29.90R
URUAPAN        SUNNY     75  57  53 CALM      30.20S
ZACATECAS      MOSUNNY   66  52  59 NE7       30.35F

CENTRAL MEXICO

CITY           SKY/WX    TMP DP  RH WIND       PRES   REMARKS
CUERNAVACA     MOSUNNY   73  59  60 SE3       30.18
MEXICO CITY    MOSUNNY   64  52  63 N3        30.38S
MORELIA        PTSUNNY   68  61  77 NW5       30.29S
POZA RICA      PTSUNNY   86  77  74 CALM      30.05R HX  97
PUEBLA         PTSUNNY   64  54  68 NE3       30.38R
QUERETARO        N/A    N/A N/A N/A MISG        N/A
S. LUIS POTOSI PTSUNNY   70  52  52 N3        30.30F
TAMPICO        MOSUNNY   86  75  70 SE9       30.00S HX  95
TOLUCA         PTSUNNY   63  48  59 CALM      30.42S

SOUTHERN MEXICO

CITY           SKY/WX    TMP DP  RH WIND       PRES   REMARKS
ACAPULCO       CLOUDY    84  75  74 NE7       29.89R HX  92
B. DE HUATULCO CLOUDY   N/A N/A N/A SW5       29.97S
OAXACA         PTSUNNY   70  55  60 CALM      30.30F
P. ESCONDIDO   CLOUDY    81  75  83 E8        30.04F
VERACRUZ       MOSUNNY   86  75  70 CALM      30.01R HX  95
ZIHUATANEJO    MOSUNNY   90  77  66 W6        29.86S HX 102

YUCATAN PENINSULA

CITY           SKY/WX    TMP DP  RH WIND       PRES   REMARKS
CAMPECHE       MOSUNNY   86  79  79 SE12      30.00S HX  99
CANCUN         PTSUNNY   88  79  74 NE7       30.06S HX 102
CHETUMAL       PTSUNNY   88  77  70 SE14      30.01S HX 100
CD. DEL CARMEN MOSUNNY  N/A N/A N/A E12       30.01R
COZUMEL        PTSUNNY   90  79  70 E10       30.03S HX 105
MERIDA         PTSUNNY   88  77  70 SE9       30.04S HX 100
MINATITLAN     MOSUNNY   86  75  70 N12       29.96S HX  95
TAPACHULA      CLOUDY    84  77  79 NW6       29.93F HX  94
TUX. GUTIERREZ CLOUDY    82  72  69 CALM      30.03R
VILLAHERMOSA   CLOUDY    82  75  78 E6        30.00S

CENTRAL AMERICA

CITY           SKY/WX    TMP DP  RH WIND       PRES   REMARKS
BELIZE CITY    MOSUNNY   88  79  74 E8        30.00S HX 102
MANAGUA        MOSUNNY   88  72  58 E21       29.89S HX  94

CARIBBEAN

CITY           SKY/WX    TMP DP  RH WIND       PRES   REMARKS
ARUBA          MOSUNNY   91  73  55 E18       29.92S HX 100
CURACAO        MOSUNNY   88  77  70 E17       29.97S HX 100
KINGSTON       MOSUNNY   90  75  62 E14       29.97S HX 100
NASSAU         PTSUNNY   88  75  66 E8        30.11F HX  97
SAN JUAN       MOSUNNY   88  79  74 E13       30.05F HX 102
SANTO DOMINGO  MOSUNNY   86  79  79 NE6       30.00  HX  99
ST. CROIX      MOSUNNY   90  79  70 E14       30.05S HX 105
ST. KITTS      MOSUNNY   88  79  74 VRB2      30.03S HX 102
ST. MAARTEN    MOSUNNY   88  79  74 SE8       30.03S HX 102
ST. THOMAS     MOSUNNY   86  79  79 SE15      30.04F HX  99

$$




USA.gov is the U.S. government's official web portal to all federal, state and local government web resources and services.